This is the latest recevied weather packets stored in our database for station/object K4DNM. If no packets are shown the sender has not sent any weather packets the latest 10 day(s).
| Time | Temp. | Humidity | Pressure | Rain* | Wind** | Luminosity | Snow |
|---|---|---|---|---|---|---|---|
| 1777468851 | 17.78° C | 85% | 1013.9 hPa | 0 mm | - | 78 W/m² | - |
| 1777468553 | 17.78° C | 84% | 1014 hPa | 0 mm | - | 81 W/m² | - |
| 1777468239 | 17.78° C | 83% | 1013.9 hPa | 0 mm | - | 83 W/m² | - |
| 1777467937 | 17.78° C | 84% | 1013.8 hPa | 0 mm | - | 87 W/m² | - |
| 1777467640 | 17.78° C | 84% | 1013.7 hPa | 0 mm | - | 117 W/m² | - |
| 1777467338 | 17.22° C | 84% | 1013.7 hPa | 0 mm | - | 135 W/m² | - |
| 1777467040 | 17.22° C | 86% | 1013.7 hPa | 0 mm | - | 165 W/m² | - |
| 1777466738 | 16.67° C | 86% | 1013.7 hPa | 0 mm | - | 150 W/m² | - |
| 1777466485 | 16.67° C | 86% | 1013.9 hPa | 0 mm | - | 122 W/m² | - |
| 1777466122 | 16.11° C | 87% | 1014 hPa | 0 mm | - | 111 W/m² | - |
| 1777465823 | 16.11° C | 90% | 1014 hPa | 0 mm | - | 92 W/m² | - |
| 1777465524 | 15.56° C | 93% | 1014.1 hPa | 0 mm | - | 103 W/m² | - |
| 1777465223 | 15° C | 95% | 1014.1 hPa | 0 mm | - | 110 W/m² | - |
| 1777464922 | 15° C | 96% | 1014.1 hPa | 0 mm | - | 97 W/m² | - |
| 1777464684 | 14.44° C | 97% | 1014.2 hPa | 0 mm | - | 80 W/m² | - |
| 1777464322 | 14.44° C | 98% | 1014.2 hPa | 0 mm | - | 56 W/m² | - |
| 1777464024 | 14.44° C | 98% | 1014.3 hPa | 0 mm | - | 38 W/m² | - |
| 1777463722 | 14.44° C | 98% | 1014.2 hPa | 0 mm | - | 29 W/m² | - |
| 1777463424 | 14.44° C | 99% | 1014.2 hPa | 0 mm | - | 29 W/m² | - |
| 1777463183 | 13.89° C | 99% | 1014.2 hPa | 0 mm | - | 25 W/m² | - |
| 1777462823 | 13.89° C | 99% | 1014.1 hPa | 0 mm | - | 30 W/m² | - |
| 1777462508 | 13.89° C | 99% | 1014.1 hPa | 0 mm | - | 31 W/m² | - |
| 1777462208 | 13.33° C | 99% | 1014 hPa | 0 mm | - | 37 W/m² | - |
| 1777461908 | 13.33° C | 99% | 1013.9 hPa | 0 mm | - | 30 W/m² | - |
| 1777461608 | 13.33° C | 99% | 1013.9 hPa | 0 mm | - | 21 W/m² | - |
* Rain latest hour (hover to see other rain measurements)
** Current wind speed in m/s (hover to see current wind gust speed)